Temperature
2 2 2 2 2 1 1 1 1 1 1 2 2 3 3 3 3 3 3 4 4 4 4 4 5 5 5 5 5 5 5 6 5 6 6 6 6 6
1 1 1 1 1 1 1 1 1 0 0 1 1 2 2 2 2 3 3 3 3 3 4 4 4 4 4 4 4 5 5 5 5 5 5 5 6 6
0 0 0 0 0 0 0 0 0 -0 -0 0 1 1 1 1 2 2 2 3 3 3 3 3 3 3 4 4 4 4 4 4 4 4 5 5 5 5
-1 -1 -1 -1 -1 -1 -0 -0 -1 -1 -1 -1 -0 0 0 1 1 1 1 2 2 2 2 3 3 3 3 3 3 3 3 3 4 4 4 4 4 4
-1 -1 -1 -1 -1 -1 -1 -1 -1 -1 -1 -1 -1 -1 -1 -0 -0 0 1 1 1 1 2 2 2 2 2 3 3 3 3 3 3 3 3 4 4 4
-2 -2 -2 -2 -2 -2 -2 -2 -2 -2 -2 -2 -2 -2 -1 -1 -1 -1 -0 0 1 1 1 1 1 2 2 2 2 2 2 2 3 3 3 3 3 3
-3 -3 -3 -3 -3 -3 -3 -3 -2 -2 -2 -2 -2 -2 -2 -2 -2 -1 -1 -1 -0 0 0 1 1 1 1 1 1 1 2 2 2 2 2 2 3 3
-4 -3 -3 -3 -3 -3 -3 -3 -3 -3 -3 -3 -3 -3 -2 -2 -2 -2 -2 -2 -1 -1 -0 0 0 0 1 1 1 1 1 1 1 2 2 2 2 2
-4 -4 -4 -4 -4 -4 -4 -4 -4 -4 -4 -3 -3 -3 -3 -3 -3 -2 -2 -2 -2 -1 -1 -1 -1 -0 0 0 0 0 1 1 1 1 1 1 1 1
-5 -5 -5 -5 -4 -5 -4 -4 -4 -4 -4 -4 -4 -3 -3 -3 -3 -3 -3 -3 -3 -2 -2 -2 -1 -1 -1 -0 -0 -0 -0 0 0 0 0 0 1 1
-6 -6 -6 -6 -5 -5 -5 -5 -5 -4 -4 -4 -4 -4 -4 -3 -3 -3 -3 -3 -3 -3 -2 -3 -2 -2 -1 -1 -1 -1 -1 -1 -0 -0 -0 -0 -0 -0
-6 -6 -6 -6 -6 -6 -6 -6 -5 -5 -5 -4 -4 -4 -4 -4 -4 -4 -4 -4 -4 -4 -3 -3 -3 -3 -3 -2 -2 -1 -1 -1 -1 -1 -1 -1 -1 -1
-7 -7 -7 -7 -7 -7 -6 -6 -6 -6 -5 -5 -5 -5 -5 -5 -4 -4 -4 -4 -4 -4 -4 -4 -3 -3 -3 -3 -2 -2 -2 -2 -2 -1 -1 -1 -1 -2
-8 -8 -8 -8 -7 -7 -7 -7 -7 -7 -6 -6 -6 -5 -5 -5 -5 -5 -5 -5 -5 -5 -4 -4 -4 -4 -4 -4 -4 -3 -2 -2 -2 -2 -2 -2 -2 -2
-8 -8 -8 -8 -8 -8 -8 -7 -7 -7 -7 -7 -7 -6 -6 -6 -6 -5 -5 -5 -5 -5 -5 -4 -4 -4 -4 -4 -4 -4 -3 -3 -3 -3 -3 -3 -3 -2
-9 -9 -9 -9 -8 -8 -8 -8 -8 -8 -8 -8 -7 -7 -7 -6 -6 -6 -6 -5 -5 -5 -5 -5 -5 -5 -4 -4 -4 -4 -4 -4 -4 -3 -3 -3 -3 -3
-9 -9 -9 -9 -9 -9 -9 -9 -8 -8 -8 -8 -8 -8 -7 -7 -7 -7 -6 -6 -6 -6 -5 -5 -5 -5 -5 -5 -5 -5 -4 -4 -4 -4 -4 -4 -4 -4
-10 -10 -10 -10 -10 -10 -10 -9 -9 -9 -9 -9 -8 -8 -8 -8 -7 -7 -7 -7 -6 -6 -6 -6 -6 -6 -5 -5 -5 -5 -5 -5 -5 -5 -5 -5 -4 -4
-10 -10 -10 -10 -10 -10 -10 -10 -10 -9 -9 -9 -9 -9 -9 -8 -8 -8 -8 -7 -7 -7 -6 -6 -6 -6 -6 -6 -6 -5 -5 -5 -5 -5 -5 -5 -5 -4
-10 -10 -10 -10 -11 -10 -10 -10 -10 -10 -10 -10 -10 -9 -9 -9 -9 -8 -8 -8 -8 -7 -7 -6 -6 -7 -7 -6 -6 -6 -6 -6 -6 -6 -6 -5 -5 -5
-11 -11 -11 -11 -11 -11 -11 -11 -11 -10 -10 -10 -10 -10 -10 -9 -9 -9 -9 -8 -8 -8 -7 -7 -7 -7 -7 -7 -7 -6 -6 -6 -6 -6 -6 -6 -6 -6
-12 -11 -11 -11 -11 -11 -11 -11 -11 -11 -11 -10 -10 -10 -10 -10 -10 -9 -9 -9 -8 -8 -8 -7 -7 -7 -7 -7 -7 -7 -7 -6 -6 -7 -7 -7 -7 -7
-12 -12 -12 -11 -11 -11 -11 -11 -11 -11 -11 -11 -11 -10 -10 -10 -10 -10 -10 -9 -9 -9 -9 -8 -8 -8 -7 -7 -7 -7 -7 -7 -7 -7 -7 -7 -7 -7
Wind_Speed
2 3 2 2 2 3 3 3 3 4 5 3 2 2 3 4 5 6 7 9 10 10 9 9 8 8 8 8 8 8 8 9 11 11 11 11 11 11
2 3 3 3 3 3 3 3 3 4 6 4 3 3 4 6 8 8 8 10 11 11 11 10 9 9 9 9 8 8 9 8 8 9 10 10 10 10
3 4 4 4 4 3 3 4 4 4 7 6 4 3 4 4 6 8 9 9 9 11 12 12 10 10 9 9 9 9 9 9 9 10 10 9 10 10
4 4 5 4 5 4 4 5 5 5 6 7 6 4 5 5 5 5 7 8 9 12 12 12 11 11 10 10 10 10 10 10 10 10 10 10 10 11
5 5 5 5 6 5 5 5 5 5 5 6 6 4 4 4 4 5 6 7 9 10 11 11 11 11 11 11 11 11 10 10 10 10 10 11 11 12
5 5 5 6 6 6 6 6 6 6 6 6 6 5 5 4 4 5 5 5 6 7 9 10 11 12 12 11 11 10 10 10 10 11 11 11 12 12
6 6 7 7 9 8 7 6 6 6 6 7 6 6 5 4 5 4 6 5 6 5 5 7 8 8 9 11 12 12 12 12 12 12 13 13 13 13
7 7 7 8 10 11 12 12 10 9 8 8 7 8 8 6 5 5 5 6 7 3 4 7 6 6 8 9 12 13 13 13 13 13 13 13 13 14
7 7 8 8 9 8 10 11 12 13 13 11 10 10 9 8 7 8 7 8 8 5 4 7 5 7 8 10 12 12 13 13 13 13 13 13 14 14
8 8 9 8 9 9 8 9 9 10 11 11 11 11 10 9 9 9 9 9 8 6 5 7 6 7 7 9 11 12 12 12 12 13 13 13 13 13
9 9 9 9 12 12 10 10 10 10 12 14 15 15 15 15 13 7 7 7 8 7 4 5 5 5 5 6 9 11 12 12 12 12 12 13 13 14
8 8 11 12 13 13 9 9 10 10 9 9 11 13 12 13 14 11 9 8 7 7 5 5 4 3 4 4 5 6 8 10 12 13 14 14 13 10
8 7 8 12 14 14 12 9 11 10 8 8 8 8 8 7 8 9 9 8 9 8 5 4 4 4 5 5 4 6 7 7 9 11 13 14 14 12
8 7 8 13 14 14 12 12 14 11 7 7 8 8 8 7 7 8 10 11 11 11 9 7 6 6 6 7 6 4 5 7 7 7 9 13 14 15
8 11 13 14 13 11 13 14 11 8 7 8 9 9 7 7 7 7 8 9 11 11 11 11 8 7 7 8 7 6 5 5 7 7 7 8 8 8
8 11 13 14 11 11 10 9 7 7 8 8 8 7 6 6 7 6 6 6 7 7 9 11 11 9 8 8 8 8 6 5 5 6 7 7 8 10
7 6 6 6 6 6 6 6 6 6 7 7 7 7 7 7 7 6 6 6 7 8 7 6 8 9 9 8 8 9 7 7 6 6 6 8 8 9
9 6 7 7 7 7 7 7 7 7 7 7 7 7 8 8 7 6 6 7 8 8 7 5 4 4 5 7 10 9 8 7 6 6 6 8 10 8
7 6 7 7 7 7 7 7 7 7 7 7 7 8 8 8 8 7 7 7 8 8 7 5 5 6 8 10 6 8 7 6 6 6 7 7 9 9
5 6 7 7 7 7 7 7 7 7 7 7 7 7 8 8 8 8 8 8 8 7 7 6 7 8 9 9 7 6 9 7 7 8 7 6 7 9
5 6 6 6 7 7 7 7 7 7 8 7 8 8 8 8 8 8 8 10 9 8 8 8 7 9 6 4 6 6 6 9 9 8 6 5 6 6
6 6 6 6 6 7 7 7 7 8 8 8 8 8 8 8 9 9 8 8 7 7 8 7 5 4 5 7 8 7 6 5 7 9 10 9 6 7
6 6 6 6 6 6 7 7 8 8 8 8 8 8 8 8 8 8 8 8 7 7 7 6 5 4 6 6 7 6 7 6 4 4 6 8 10 12
Wind_Direction
253 259 266 265 260 265 263 249 249 274 274 259 255 246 285 289 293 297 292 292 292 291 281 274 273 273 274 276 277 278 281 278 265 260 261 262 262 261
260 257 263 266 266 263 263 261 252 250 265 264 266 285 292 292 286 287 287 291 290 288 283 270 267 267 268 271 272 273 275 276 278 270 262 263 265 267
262 261 261 265 266 263 267 263 257 250 264 279 273 271 262 271 285 283 281 278 281 282 281 271 265 263 264 267 270 269 270 272 272 273 274 271 268 268
258 259 262 265 263 265 262 261 259 254 253 268 275 270 265 259 261 272 283 280 278 278 277 270 265 262 262 263 265 265 265 267 269 269 271 272 272 271
253 254 258 258 262 263 264 265 263 264 259 261 266 266 268 268 269 275 277 278 278 278 275 270 263 263 264 263 262 261 262 263 266 268 270 272 271 272
257 259 260 255 257 261 262 259 263 263 265 264 260 263 264 263 256 267 276 270 274 280 278 274 268 264 262 260 261 261 263 264 263 264 266 269 271 271
262 261 261 259 260 260 262 261 261 260 263 262 258 261 259 259 256 260 268 276 275 267 275 270 266 260 261 261 261 261 263 264 264 264 264 266 267 270
267 268 266 262 264 265 265 265 262 260 258 257 256 255 257 255 255 258 265 273 277 259 264 269 258 254 258 261 262 262 261 262 263 263 262 263 265 267
262 267 270 266 268 265 269 270 267 264 260 259 256 254 257 255 253 254 253 258 263 264 273 267 253 255 259 264 262 260 262 263 264 264 264 265 265 263
259 258 261 265 263 265 265 267 264 262 260 257 257 259 257 254 247 250 251 259 267 264 252 258 259 259 265 259 257 258 261 263 265 266 266 264 263 263
263 260 258 258 263 266 267 266 268 266 266 265 265 264 262 260 255 254 254 255 265 263 237 245 259 269 263 253 256 256 257 259 259 261 265 268 269 267
265 262 259 260 265 266 265 264 267 270 272 273 271 271 268 262 255 243 240 245 258 261 239 236 248 263 273 256 250 254 260 262 261 262 265 267 267 267
265 265 263 266 268 268 268 266 269 276 276 272 273 271 270 263 254 246 240 238 244 251 240 231 247 249 254 271 267 258 259 263 264 264 263 263 261 260
263 265 266 268 270 271 271 271 275 280 279 276 269 266 267 266 261 254 247 243 243 248 245 234 244 242 249 265 270 261 255 257 258 259 261 264 262 260
267 267 270 273 274 272 271 273 274 270 268 269 268 265 265 266 270 268 257 253 251 251 248 244 241 242 237 250 260 263 270 263 250 251 254 255 253 255
274 271 271 273 273 272 273 272 266 261 262 264 269 271 270 268 266 266 262 253 255 256 249 245 246 238 243 250 252 258 253 247 249 255 257 259 254 250
279 276 270 270 269 267 268 267 264 263 263 263 266 272 272 269 268 265 263 255 252 256 255 247 251 248 243 242 249 250 251 256 252 253 260 263 255 247
277 269 267 266 267 267 268 270 268 265 263 264 265 267 269 270 271 270 263 260 257 252 249 242 240 259 267 262 242 245 246 251 255 250 249 259 263 255
271 265 265 266 267 268 269 269 269 269 267 263 264 266 269 270 270 268 265 263 262 258 249 237 228 236 250 263 254 233 241 250 254 256 252 253 261 263
267 266 267 268 268 268 269 270 272 272 270 267 265 264 265 266 267 265 262 263 262 262 258 243 231 231 239 252 264 262 248 247 250 257 261 267 271 273
276 271 270 270 271 271 271 270 272 272 271 268 266 264 264 264 264 263 263 264 260 256 256 255 248 250 250 253 262 266 256 253 253 254 252 260 272 270
274 273 274 274 274 273 272 271 271 271 272 269 267 264 263 260 260 262 262 261 257 255 260 264 250 241 240 245 252 261 266 264 271 271 263 257 256 252
281 279 277 276 274 274 274 273 272 272 270 269 268 265 261 260 259 258 258 258 259 259 261 265 259 243 241 242 250 255 255 260 261 273 272 276 279 275
Height
1513 1514 1515 1515 1516 1517 1517 1517 1517 1514 1512 1512 1513 1514 1514 1514 1514 1513 1513 1513 1513 1512 1512 1512 1512 1512 1512 1512 1513 1513 1514 1515 1515 1516 1517 1518 1520 1521
1509 1509 1510 1510 1511 1511 1512 1512 1512 1512 1509 1507 1508 1509 1509 1509 1509 1508 1508 1508 1507 1507 1507 1507 1507 1507 1507 1507 1507 1508 1509 1508 1509 1510 1511 1512 1514 1515
1504 1504 1504 1505 1505 1506 1507 1507 1507 1507 1505 1503 1504 1504 1503 1503 1503 1503 1502 1502 1502 1502 1502 1501 1501 1501 1501 1502 1502 1502 1503 1503 1503 1504 1504 1506 1507 1509
1498 1499 1499 1500 1500 1500 1501 1501 1501 1502 1501 1498 1498 1498 1498 1498 1497 1497 1496 1496 1496 1496 1496 1496 1496 1496 1496 1497 1497 1497 1497 1497 1497 1498 1499 1500 1501 1502
1493 1493 1494 1494 1494 1495 1495 1495 1496 1496 1495 1494 1492 1492 1492 1492 1492 1491 1491 1490 1490 1490 1490 1490 1490 1490 1490 1491 1491 1491 1491 1492 1492 1492 1493 1494 1495 1496
1487 1488 1488 1488 1489 1489 1489 1490 1490 1490 1489 1488 1487 1486 1486 1486 1486 1485 1484 1484 1484 1484 1484 1484 1484 1484 1484 1485 1485 1485 1486 1486 1486 1486 1487 1487 1488 1489
1481 1482 1482 1483 1483 1484 1484 1484 1484 1484 1483 1482 1481 1480 1480 1480 1480 1480 1479 1478 1477 1478 1477 1478 1478 1477 1477 1478 1478 1478 1479 1479 1480 1480 1480 1481 1481 1482
1475 1475 1476 1476 1477 1477 1477 1477 1478 1478 1477 1476 1475 1474 1473 1474 1475 1474 1474 1473 1470 1472 1472 1471 1471 1470 1470 1471 1471 1472 1472 1473 1473 1474 1474 1474 1474 1475
1469 1469 1469 1470 1470 1470 1470 1470 1470 1470 1471 1471 1469 1467 1468 1468 1469 1468 1467 1466 1465 1465 1466 1463 1464 1464 1464 1464 1464 1465 1466 1466 1466 1466 1467 1467 1467 1468
1463 1463 1463 1463 1463 1463 1463 1462 1462 1462 1463 1463 1462 1461 1461 1462 1462 1462 1461 1460 1459 1459 1460 1457 1456 1457 1457 1457 1458 1458 1459 1459 1459 1459 1460 1460 1460 1461
1457 1457 1456 1456 1456 1456 1456 1455 1455 1455 1456 1456 1455 1454 1454 1454 1455 1455 1454 1453 1450 1450 1452 1451 1449 1449 1449 1449 1450 1451 1452 1452 1452 1452 1453 1453 1453 1453
1450 1450 1450 1449 1450 1450 1450 1449 1448 1447 1448 1447 1446 1446 1446 1446 1446 1447 1446 1446 1444 1443 1443 1444 1443 1443 1441 1441 1443 1444 1444 1445 1445 1445 1445 1445 1446 1445
1444 1443 1443 1443 1443 1443 1443 1442 1441 1441 1441 1440 1439 1438 1438 1438 1438 1438 1438 1438 1437 1436 1437 1438 1437 1437 1436 1434 1435 1436 1437 1437 1437 1437 1438 1438 1438 1438
1437 1437 1436 1437 1436 1436 1436 1435 1435 1435 1434 1433 1431 1430 1430 1430 1430 1430 1430 1430 1429 1429 1430 1431 1430 1430 1429 1428 1427 1427 1429 1429 1429 1429 1429 1430 1431 1431
1431 1431 1430 1430 1430 1429 1428 1428 1428 1428 1427 1426 1424 1423 1423 1422 1422 1422 1421 1422 1421 1421 1422 1423 1423 1422 1422 1421 1420 1420 1420 1420 1422 1422 1421 1421 1421 1422
1425 1424 1424 1423 1423 1422 1421 1421 1421 1420 1420 1418 1417 1416 1416 1415 1414 1414 1413 1413 1413 1412 1413 1414 1414 1415 1414 1414 1414 1412 1413 1413 1413 1414 1414 1413 1414 1413
1419 1418 1417 1416 1415 1414 1414 1414 1413 1413 1412 1411 1411 1410 1409 1408 1406 1406 1406 1406 1405 1403 1404 1405 1406 1407 1407 1407 1406 1405 1405 1405 1406 1406 1406 1404 1404 1405
1413 1411 1410 1409 1409 1408 1407 1407 1406 1405 1405 1404 1404 1403 1402 1400 1399 1398 1398 1397 1396 1396 1396 1396 1398 1399 1399 1398 1399 1398 1398 1398 1398 1399 1398 1397 1395 1396
1406 1404 1404 1403 1402 1402 1401 1400 1399 1399 1398 1397 1396 1396 1395 1393 1392 1391 1390 1389 1388 1388 1388 1389 1390 1391 1390 1388 1388 1391 1391 1390 1390 1390 1390 1390 1388 1388
1399 1398 1398 1397 1396 1395 1394 1394 1393 1392 1391 1390 1389 1388 1387 1386 1385 1384 1383 1382 1381 1380 1380 1381 1382 1383 1383 1382 1381 1381 1384 1384 1383 1382 1382 1382 1381 1382
1394 1393 1392 1391 1390 1389 1388 1387 1386 1385 1384 1383 1382 1381 1380 1379 1377 1376 1375 1374 1374 1373 1373 1373 1374 1376 1377 1377 1375 1373 1375 1377 1377 1376 1376 1375 1373 1372
1388 1387 1386 1385 1384 1383 1382 1380 1379 1378 1377 1376 1374 1373 1373 1372 1370 1369 1368 1367 1366 1366 1366 1366 1368 1369 1370 1369 1367 1366 1366 1368 1369 1370 1371 1370 1368 1365
1383 1382 1380 1379 1378 1377 1375 1374 1372 1371 1370 1369 1367 1366 1365 1364 1363 1362 1361 1361 1360 1360 1360 1359 1360 1361 1362 1362 1361 1360 1360 1360 1361 1361 1361 1362 1363 1362